Flag for Moldova Weather past 2 weeks in Chisinau, Moldova

Now
66 °F

Scattered clouds.


Feels Like: 66 °F
Forecast: 61 / 85 °F
Wind: 9 mph from Southwest

Location: Chisinau International Airport

Current Time: Jun 2, 2015 at 8:34:55 AM

Latest Report: Jun 2, 2015 at 8:00 AM


Visibility: N/A

Pressure: 30.09 "Hg

Humidity: 60%

Dew point: 52 °F

Location of ChisinauLocation

Historic Weather in Chisinau — Graph

°F

Chisinau temperature yesterday

Maximum temperature yesterday: 84 °F (at 3:00 PM)
Minimum temperature yesterday: 55 °F (at 5:30 AM)
Average temperature yesterday: 69 °F

Past Weeks' High & Low Weather Summary

 TemperatureHumidityPressure
High84 °F (May 24, 3:30 PM)88% (May 19, 6:00 AM)30.15 "Hg (May 19, 6:00 AM)
Low50 °F (May 21, 5:30 AM)21% (May 31, 1:00 PM)29.59 "Hg (May 26, 6:30 PM)
Average68 °F50%29.91 "Hg
* Reported May 18 6:00 AM — Jun 2 6:30 AM, Chisinau, Weather by CustomWeather, © 2015

Note: Actual official high and low records may vary slightly from our data, if they occured in-between our weather recording intervals... More about our weather records

Advertising

Chisinau weather history for previous 24 hours

 ConditionsComfort  
Time TempWeatherWind HumidityBarometerVisibility
6:30 AM
Tue, Jun 2
63 °FPassing clouds.5 mph77%30.07 "HgN/A
6:00 AM63 °FPassing clouds.1 mph73%30.09 "HgN/A
5:30 AM63 °FClear.7 mph77%30.09 "Hg10 mi
5:00 AM63 °FClear.6 mph77%30.09 "Hg10 mi
4:30 AM63 °FPassing clouds.5 mph73%30.09 "HgN/A
4:00 AM63 °FPassing clouds.5 mph73%30.09 "HgN/A
3:30 AM63 °FPassing clouds.6 mph77%30.09 "HgN/A
3:00 AM63 °FPassing clouds.6 mph77%30.09 "HgN/A
2:30 AM63 °FSprinkles. Passing clouds.5 mph77%30.12 "HgN/A
2:00 AM64 °FSprinkles. Passing clouds.6 mph68%30.12 "HgN/A
1:30 AM64 °FSprinkles. Passing clouds.No wind68%30.12 "HgN/A
1:00 AM66 °FPassing clouds.5 mph64%30.12 "HgN/A
12:30 AM66 °FPassing clouds.10 mph64%30.15 "HgN/A
12:00 AM66 °FPassing clouds.10 mph60%30.15 "HgN/A
11:30 PM
Mon, Jun 1
64 °FPassing clouds.5 mph64%30.12 "HgN/A
11:00 PM64 °FPassing clouds.7 mph64%30.12 "HgN/A
10:30 PM66 °FPassing clouds.5 mph60%30.09 "HgN/A
10:00 PM66 °FPassing clouds.7 mph56%30.09 "HgN/A
9:30 PM66 °FScattered clouds.6 mph60%30.09 "HgN/A
9:00 PM70 °FScattered clouds.9 mph50%30.09 "HgN/A
8:30 PM72 °FScattered clouds.12 mph53%30.09 "HgN/A
8:00 PM72 °FPassing clouds.10 mph50%30.09 "HgN/A
7:30 PM73 °FPassing clouds.14 mph47%30.09 "HgN/A
7:00 PM73 °FScattered clouds.13 mph47%30.07 "HgN/A
6:30 PM73 °FScattered clouds.8 mph47%30.07 "HgN/A
6:00 PM73 °FPartly sunny.13 mph47%30.07 "HgN/A
5:30 PM73 °FPartly sunny.15 mph47%30.09 "HgN/A
5:00 PM75 °FThundershowers. Partly sunny.15 mph44%30.09 "HgN/A
4:30 PM75 °FThundershowers. Partly sunny.13 mph41%30.09 "HgN/A
4:00 PM81 °FPartly sunny.10 mph30%30.07 "HgN/A
3:30 PM82 °FPartly sunny.5 mph25%30.07 "HgN/A
3:00 PM84 °FPartly sunny.5 mph27%30.09 "HgN/A
2:30 PM82 °FScattered clouds.6 mph25%30.09 "HgN/A
2:00 PM82 °FScattered clouds.3 mph26%30.09 "HgN/A
1:30 PM82 °FScattered clouds.6 mph26%30.09 "HgN/A
12:00 PM81 °FScattered clouds.5 mph30%30.12 "HgN/A
11:30 AM79 °FPassing clouds.7 mph34%30.12 "HgN/A
11:00 AM79 °FPassing clouds.6 mph34%30.12 "HgN/A
10:30 AM77 °FPassing clouds.6 mph39%30.12 "HgN/A
10:00 AM73 °FSunny.2 mph53%30.12 "Hg10 mi
9:30 AM72 °FSunny.2 mph50%30.12 "Hg10 mi
9:00 AM70 °FSunny.2 mph57%30.12 "Hg10 mi
8:30 AM68 °FSunny.2 mph56%30.12 "Hg10 mi
8:00 AM66 °FSunny.No wind60%30.12 "Hg10 mi
Weather by CustomWeather, © 2015

See weather overviewHow to use our weather pages